Regional Weather Roundup
Issued by NWS Cleveland, OH

Home | Current Version | Previous Version | Text Only | Print | Product List | Glossary Off
Versions: 1 2 3 4 5 6 7 8 9 10 11 12 13 14 15 16 17 18 19 20 21 22 23 24 25 26 27 28 29 30 31 32 33 34 35 36 37 38 39 40 41 42 43 44 45 46 47 48 49 50

000
ASUS41 KCLE 120912
RWRCLE
OHIO REGIONAL WEATHER ROUNDUP
NATIONAL WEATHER SERVICE WILMINGTON, OH
400 AM EST FRI FEB 12 2016

NOTE: "FAIR" INDICATES FEW OR NO CLOUDS BELOW 12,000 FEET WITH NO
SIGNIFICANT WEATHER AND/OR OBSTRUCTIONS TO VISIBILITY.

OHZ001>008-015>018-024>027-034-035-043-044-121000-
   NORTHWEST OHIO

CITY           SKY/WX    TMP DP  RH WIND       PRES   REMARKS
DEFIANCE       MOCLDY    11   6  81 SW5       30.20F WCI   3
FINDLAY        CLOUDY    10   4  76 SW5       30.18F WCI   2
TOLEDO EXPRESS FAIR      10   5  80 SW5       30.18F WCI   2
TOLEDO EXEC    FAIR      12   6  77 SW6       30.20F WCI   3
LIMA           FAIR      13   6  74 S6        30.18F WCI   4
$$

OHZ009>014-019>023-028>033-038-089-121000-
   NORTHEAST OHIO

CITY           SKY/WX    TMP DP  RH WIND       PRES   REMARKS
CLE-HOPKINS    CLOUDY    14   5  67 SW6       30.21F WCI   5
CLE-LAKEFRONT  CLOUDY    19   9  65 SW17      30.18F WCI   4
CUY CO. ARPT   NOT AVBL
LORAIN-ELYRIA  CLOUDY    12   5  73 SW5       30.19F WCI   4
ASHTABULA      CLOUDY     9   2  73 SW9       30.15F WCI  -4
AKRON-CANTON   CLOUDY    13   4  67 SW6       30.16F WCI   4
WOOSTER        CLOUDY    12   7  80 W3        30.17F
MANSFIELD      FAIR      11   5  77 SW5       30.15F WCI   3
YOUNGSTOWN     FAIR       6   0  76 SW6       30.15F WCI  -4
$$

OHZ042-051>053-060>062-070>072-077>081-121000-
  SOUTHWEST OHIO

CITY           SKY/WX    TMP DP  RH WIND       PRES   REMARKS
CINC-COVINGTON CLOUDY    20   8  60 SE3       30.20F
CINC-LUNKEN    FAIR      17  12  80 NE3       30.26F
HAMILTON       FAIR      12   9  87 CALM      30.24F
DAYTON         FAIR      12   7  80 CALM      30.20F
WRIGHT-PAT AFB CLEAR     10   4  78 E2        30.21F
DAYTON GENERAL FAIR      11   4  73 CALM      30.19F
WILMINGTON     FAIR       6   2  83 CALM      30.20F
$$

OHZ036-037-039>041-045>050-054>059-063>069-073>076-082>088-121000-
  CENTRAL AND SOUTHEAST OHIO

CITY           SKY/WX    TMP DP  RH WIND       PRES   REMARKS
COLUMBUS       FAIR       7   3  84 CALM      30.23F
OSU AIRPORT    FAIR      10   6  84 CALM      30.21F
BOLTON FIELD   FAIR       5   1  86 MISG      30.22F
RICKENBACK AFB FAIR       2  -1  87 CALM      30.23F
NEWARK         FAIR       2  -3  80 CALM      30.22F
MARION         FAIR       9   2  73 SW7       30.19F WCI  -2
LANCASTER      FAIR       0  -6  76 CALM      30.23F
ZANESVILLE     FAIR       3  -3  76 CALM      30.22F
NEW PHILLY     FAIR       6   2  83 CALM      30.22F
$$



USA.gov is the U.S. government's official web portal to all federal, state and local government web resources and services.